Location: Wawayanda State Park
(41.1833°N, 74.4333°W)
Time: 22:23:06
(UTC-04:00)

Landsat 7 - Visible Passes

Search period start: 04 August 2015 00:00
Search period end: 14 August 2015 00:00
Orbit: 702 x 703 km, 98.2° (Epoch: 04 August)

Date Brightness Start Highest point End Pass type
(mag) Time Alt. Az. Time Alt. Az. Time Alt. Az.
04 Aug 3.7 22:31:54 57° SE 22:32:47 75° ENE 22:37:33 10° N visible
05 Aug 6.4 00:10:47 11° W 00:11:12 11° W 00:12:23 10° WNW visible
05 Aug 5.3 21:36:21 18° E 21:38:04 22° ENE 21:41:46 10° NNE visible
05 Aug 4.7 23:15:14 39° WSW 23:15:38 40° W 23:20:06 10° NNW visible
06 Aug 4.0 22:19:42 48° ESE 22:20:36 56° ENE 22:25:17 10° N visible
06 Aug 6.1 23:58:35 15° W 23:58:48 15° W 00:01:25 10° NW visible
07 Aug 5.6 21:24:09 14° E 21:25:58 17° ENE 21:29:07 10° NNE visible
07 Aug 4.2 23:03:03 52° WSW 23:03:21 53° W 23:08:02 10° NNW visible
08 Aug 4.3 22:07:30 38° E 22:08:26 42° ENE 22:12:57 10° N visible
08 Aug 5.8 23:46:24 20° W 23:46:26 20° W 23:49:51 10° NW visible
09 Aug 5.8 21:11:58 11° E 21:13:53 13° ENE 21:16:14 10° NNE visible
09 Aug 3.8 22:50:52 70° SW 22:51:07 72° WSW 22:55:54 10° NNW visible
10 Aug 4.7 21:55:19 29° E 21:56:17 32° ENE 22:00:32 10° N visible
10 Aug 5.4 23:34:12 26° W 23:34:12 26° W 23:38:02 10° NW visible
11 Aug 6.1 21:01:38 10° ENE 21:01:49 10° ENE 21:02:18 10° NE visible
11 Aug 3.6 22:38:40 80° SE 22:38:54 86° ENE 22:43:41 10° NNW visible
12 Aug 5.1 21:43:07 23° E 21:44:09 25° ENE 21:48:03 10° NNE visible
12 Aug 5.0 23:22:01 34° W 23:22:01 34° W 23:26:07 10° NNW visible
13 Aug 3.8 22:26:29 64° E 22:26:42 65° ENE 22:31:26 10° N visible
